Location: Sternwarte ZA, Rosenfeld-Brittheim
(48.2889°N, 8.6789°E)
Time: 19:47:37
(UTC+02:00)

ISS - Pass Details

Date: 17 July 2019
Orbit: 409 x 418 km, 51.6° (Epoch: 20 July)

Event Time Altitude Azimuth Distance (km) Brightness Sun altitude
Rises 03:54:11 0° 292° (WNW) 2,348 -0.1 -13.5°
Reaches altitude 10° 03:56:17 10° 291° (WNW) 1,482 -1.1 -13.3°
Maximum altitude 03:59:36 81° 206° (SSW) 421 -3.9 -13.0°
Drops below altitude 10° 04:02:55 10° 117° (ESE) 1,473 -0.9 -12.6°
Sets 04:04:59 0° 117° (ESE) 2,331 0.2 -12.4°
